Regional Weather Roundup
Issued by NWS Bismarck, ND

Home | Current Version | Previous Version | Text Only | Print | Product List | Glossary On
Versions: 1 2 3 4 5 6 7 8 9 10 11 12 13 14 15 16 17 18 19 20 21 22 23 24 25 26 27 28 29 30 31 32 33 34 35 36 37 38 39 40 41 42 43 44 45 46 47 48 49 50
000
ASUS43 KBIS 200820
RWRBIS

NWR BROADCAST TEXT
NATIONAL WEATHER SERVICE BISMARCK ND
300 AM CDT MON OCT 20 2014

NOTE: "FAIR" INDICATES FEW OR NO CLOUDS BELOW 12,000 FEET WITH NO
SIGNIFICANT WEATHER AND/OR OBSTRUCTIONS TO VISIBILITY.


CITY           SKY/WX    TMP DP  RH WIND       PRES   REMARKS
WILLISTON      CLEAR     39  33  79 SW5       29.99S
MINOT          PTCLDY    47  34  60 SW13      30.00R
MINOT AFB      PTCLDY    39  35  84 W8        29.99R
BISMARCK       MOCLDY    35  33  92 CALM      30.05R
DICKINSON      PTCLDY    41  35  79 S10       30.02S
GARRISON         N/A     37  32  82 CALM      30.02S
HETTINGER ARPT PTCLDY    34  29  82 CALM      30.06S
JAMESTOWN      CLEAR     41  36  82 W3        29.99S
BEACH            N/A     43  37  81 S7        30.02F
CARRINGTON     FAIR      37  37 100 W10       30.01S
CROSBY         FAIR      43  39  87 S10       29.98S
HARVEY         FAIR      36  34  93 W6        30.01S
HAZEN          FAIR      30  28  93 CALM      30.04S
LINTON         FAIR      32  32 100 E5        30.05R
MANDAN         PTSUNNY   39  36  87 W6        30.05S
OAKES            N/A     41  37  87 W3        30.01R
RUGBY          FAIR      37  37 100 NE7       30.01R
STANLEY        FAIR      37  37 100 CALM      30.01S
TIOGA          FAIR      32  32 100 E3        30.03S
$$

CITY           SKY/WX    TMP DP  RH WIND       PRES   REMARKS
GRAND FORKS    CLEAR     38  35  89 W6        29.97R
GRAND FORKS AF CLEAR     42  38  86 NW7       29.98R
DEVILS LAKE    CLEAR     39  30  70 NW3       29.99R
FARGO          CLEAR     41  35  79 W5        29.97R
CANDO          FAIR      36  32  87 NW3       30.01R
CAVALIER       FAIR      45  39  81 N6        30.00R
GRAFTON        FAIR      41  37  87 N9        29.99R
GWINNER        SUNNY     48  36  61 NW9       30.00S
LANGDON        FAIR      32  28  86 N6        30.00R
ROLLA          FAIR      37  34  87 NW6       30.02R
WALHALLA       FAIR      43  41  93 NW6       30.00R
$$

CITY           SKY/WX    TMP DP  RH WIND       PRES   REMARKS
ABERDEEN       CLEAR     42  35  76 NW5       30.02R
MOBRIDGE       CLEAR     38  36  92 CALM      30.03S
BUFFALO          N/A     46  34  62 S9        29.99S
RAPID CITY     CLEAR     40  35  83 W3        30.08F
GLASGOW        CLEAR     45  37  73 E16       29.91F
SIDNEY         CLEAR     37  32  81 CALM      30.00F
WOLF POINT     CLEAR     39  34  82 NE5       29.95S
GLENDIVE       CLEAR     41  34  75 SW7       30.00S
MILES CITY     CLEAR     53  37  54 SE14      29.97S
BAKER          CLEAR     42  34  73 E9        30.02F
$$

CITY           SKY/WX    TMP DP  RH WIND       PRES   REMARKS
BILLINGS       CLEAR     49  32  52 SW13      29.95F
GREAT FALLS    CLEAR     57  29  34 S14       29.88S
REGINA         CLEAR     37  36  93 E9        29.93R
ESTEVAN        CLEAR     39  36  87 SE5       29.98S
$$



USA.gov is the U.S. government's official web portal to all federal, state and local government web resources and services.